EN

Hourly Weather Ludwin

Today, 12 June, Saturday

Time Temperature Precipitation Wind Pressure Humidity
00:00 +14°C° 0.1 mm 2 mps 748 mmHg 91%
01:00 +14°C° 0 mm 2 mps 748 mmHg 92%
02:00 +14°C° 0 mm 2 mps 748 mmHg 92%
03:00 +13°C° 0 mm 2 mps 748 mmHg 91%
04:00 +13°C° 0 mm 2 mps 747 mmHg 91%
05:00 +15°C° 0 mm 2 mps 748 mmHg 84%
06:00 +17°C° 0 mm 2 mps 748 mmHg 77%
07:00 +19°C° 0 mm 2 mps 748 mmHg 71%
08:00 +20°C° 0 mm 2 mps 747 mmHg 66%
09:00 +22°C° 0 mm 3 mps 747 mmHg 61%
10:00 +24°C° 0 mm 3 mps 747 mmHg 56%
11:00 +24°C° 0.2 mm 3 mps 746 mmHg 56%
12:00 +25°C° 0.2 mm 4 mps 746 mmHg 55%
13:00 +25°C° 0.2 mm 4 mps 746 mmHg 54%
14:00 +25°C° 0.4 mm 5 mps 745 mmHg 59%
15:00 +25°C° 0.4 mm 5 mps 744 mmHg 63%
16:00 +23°C° 0.4 mm 5 mps 744 mmHg 67%
17:00 +21°C° 1.1 mm 4 mps 744 mmHg 76%
18:00 +19°C° 1.1 mm 3 mps 744 mmHg 85%
19:00 +17°C° 1.1 mm 3 mps 744 mmHg 94%
20:00 +17°C° 2 mm 3 mps 744 mmHg 95%
21:00 +15°C° 2 mm 4 mps 744 mmHg 95%
22:00 +15°C° 2 mm 5 mps 744 mmHg 95%
23:00 +14°C° 1.2 mm 5 mps 744 mmHg 94%

Tomorrow, 13 June, Sunday

Time Temperature Precipitation Wind Pressure Humidity
00:00 +14°C° 1.2 mm 5 mps 745 mmHg 94%
01:00 +13°C° 1.2 mm 5 mps 745 mmHg 93%
02:00 +12°C° 0 mm 5 mps 745 mmHg 92%
03:00 +10°C° 0 mm 5 mps 746 mmHg 91%
04:00 +9°C° 0 mm 5 mps 746 mmHg 91%
05:00 +10°C° 0 mm 6 mps 746 mmHg 86%
06:00 +11°C° 0 mm 7 mps 747 mmHg 82%
07:00 +12°C° 0 mm 7 mps 747 mmHg 78%
08:00 +12°C° 0.1 mm 7 mps 748 mmHg 77%
09:00 +12°C° 0.1 mm 7 mps 748 mmHg 76%
10:00 +12°C° 0.1 mm 7 mps 749 mmHg 75%
11:00 +12°C° 0 mm 7 mps 749 mmHg 74%
12:00 +12°C° 0 mm 7 mps 749 mmHg 72%
13:00 +14°C° 0 mm 7 mps 749 mmHg 71%
14:00 +14°C° 0 mm 7 mps 749 mmHg 71%
15:00 +14°C° 0 mm 7 mps 749 mmHg 71%
16:00 +14°C° 0 mm 7 mps 750 mmHg 71%
17:00 +14°C° 0.1 mm 7 mps 750 mmHg 73%
18:00 +14°C° 0.1 mm 7 mps 750 mmHg 75%
19:00 +12°C° 0.1 mm 7 mps 750 mmHg 77%
20:00 +13°C° 0 mm 6 mps 750 mmHg 79%
21:00 +11°C° 0 mm 6 mps 751 mmHg 81%
22:00 +11°C° 0 mm 6 mps 751 mmHg 84%
23:00 +10°C° 0 mm 5 mps 751 mmHg 86%

Day after tomorrow, 14 June, Monday

Time Temperature Precipitation Wind Pressure Humidity
00:00 +10°C° 0 mm 5 mps 751 mmHg 89%
01:00 +9°C° 0 mm 5 mps 751 mmHg 91%
02:00 +10°C° 0 mm 4 mps 752 mmHg 92%
03:00 +8°C° 0 mm 4 mps 752 mmHg 93%
04:00 +8°C° 0 mm 4 mps 752 mmHg 94%
05:00 +10°C° 0 mm 4 mps 752 mmHg 85%
06:00 +12°C° 0 mm 4 mps 753 mmHg 76%
07:00 +13°C° 0 mm 5 mps 753 mmHg 68%
08:00 +15°C° 0 mm 5 mps 753 mmHg 63%
09:00 +16°C° 0 mm 5 mps 753 mmHg 58%
10:00 +17°C° 0 mm 5 mps 753 mmHg 53%
11:00 +19°C° 0 mm 5 mps 752 mmHg 51%
12:00 +20°C° 0 mm 5 mps 752 mmHg 48%
13:00 +20°C° 0 mm 5 mps 752 mmHg 45%
14:00 +20°C° 0 mm 5 mps 752 mmHg 45%
15:00 +20°C° 0 mm 5 mps 752 mmHg 46%
16:00 +20°C° 0 mm 4 mps 751 mmHg 46%
17:00 +19°C° 0 mm 4 mps 751 mmHg 54%
18:00 +18°C° 0 mm 3 mps 751 mmHg 62%
19:00 +16°C° 0 mm 2 mps 751 mmHg 71%
20:00 +15°C° 0 mm 1 mps 752 mmHg 73%
21:00 +14°C° 0 mm 1 mps 752 mmHg 76%
22:00 +11°C° 0 mm 0 mps 752 mmHg 78%
23:00 +11°C° 0 mm 0 mps 752 mmHg 79%

15 June, Tuesday

Time Temperature Precipitation Wind Pressure Humidity
00:00 +12°C° 0 mm 1 mps 752 mmHg 80%
01:00 +11°C° 0 mm 1 mps 752 mmHg 81%
02:00 +11°C° 0 mm 1 mps 752 mmHg 82%
03:00 +11°C° 0 mm 1 mps 752 mmHg 82%
04:00 +11°C° 0 mm 1 mps 752 mmHg 83%
05:00 +13°C° 0 mm 1 mps 752 mmHg 77%
06:00 +15°C° 0 mm 1 mps 753 mmHg 71%
07:00 +18°C° 0 mm 1 mps 753 mmHg 65%
08:00 +20°C° 0 mm 1 mps 753 mmHg 60%
09:00 +21°C° 0 mm 1 mps 753 mmHg 56%
10:00 +21°C° 0 mm 2 mps 752 mmHg 51%
11:00 +23°C° 0 mm 2 mps 752 mmHg 49%
12:00 +24°C° 0 mm 1 mps 752 mmHg 47%
13:00 +24°C° 0 mm 1 mps 752 mmHg 45%
14:00 +24°C° 0 mm 1 mps 752 mmHg 46%
15:00 +24°C° 0 mm 1 mps 751 mmHg 47%
16:00 +24°C° 0 mm 1 mps 751 mmHg 48%
17:00 +23°C° 0 mm 1 mps 751 mmHg 54%
18:00 +22°C° 0 mm 1 mps 751 mmHg 61%
19:00 +20°C° 0 mm 1 mps 751 mmHg 68%
20:00 +20°C° 0 mm 1 mps 751 mmHg 69%
21:00 +19°C° 0 mm 1 mps 751 mmHg 71%
22:00 +18°C° 0 mm 1 mps 751 mmHg 72%
23:00 +18°C° 0 mm 1 mps 751 mmHg 72%

16 June, Wednesday

Time Temperature Precipitation Wind Pressure Humidity
00:00 +18°C° 0 mm 1 mps 751 mmHg 73%
01:00 +18°C° 0 mm 1 mps 751 mmHg 73%
02:00 +16°C° 0 mm 1 mps 751 mmHg 74%
03:00 +16°C° 0 mm 1 mps 751 mmHg 75%
04:00 +16°C° 0 mm 1 mps 751 mmHg 76%
05:00 +18°C° 0 mm 1 mps 751 mmHg 75%
06:00 +19°C° 0 mm 1 mps 751 mmHg 74%
07:00 +20°C° 0 mm 1 mps 752 mmHg 72%
08:00 +21°C° 0 mm 1 mps 752 mmHg 71%
09:00 +22°C° 0 mm 1 mps 752 mmHg 70%
10:00 +23°C° 0 mm 1 mps 752 mmHg 68%
11:00 +24°C° 0.1 mm 1 mps 752 mmHg 65%
12:00 +25°C° 0.1 mm 1 mps 752 mmHg 62%
13:00 +26°C° 0.1 mm 1 mps 752 mmHg 59%
14:00 +26°C° 0.2 mm 2 mps 752 mmHg 59%
15:00 +26°C° 0.2 mm 2 mps 751 mmHg 60%
16:00 +26°C° 0.2 mm 2 mps 751 mmHg 61%
17:00 +24°C° 0.1 mm 2 mps 751 mmHg 69%
18:00 +22°C° 0.1 mm 3 mps 752 mmHg 77%
19:00 +20°C° 0.1 mm 3 mps 752 mmHg 85%
20:00 +19°C° 0 mm 3 mps 752 mmHg 88%
21:00 +18°C° 0 mm 3 mps 752 mmHg 91%
22:00 +17°C° 0 mm 2 mps 752 mmHg 94%
23:00 +17°C° 0 mm 2 mps 753 mmHg 94%

17 June, Thursday

Time Temperature Precipitation Wind Pressure Humidity
00:00 +16°C° 0 mm 2 mps 753 mmHg 94%
01:00 +16°C° 0 mm 2 mps 753 mmHg 94%
02:00 +16°C° 0 mm 2 mps 753 mmHg 95%
03:00 +16°C° 0 mm 2 mps 753 mmHg 95%
04:00 +16°C° 0 mm 2 mps 753 mmHg 95%
05:00 +17°C° 0 mm 2 mps 753 mmHg 90%
06:00 +19°C° 0 mm 3 mps 753 mmHg 84%
07:00 +21°C° 0 mm 3 mps 753 mmHg 79%
08:00 +22°C° 0 mm 3 mps 753 mmHg 73%
09:00 +25°C° 0 mm 3 mps 753 mmHg 66%
10:00 +26°C° 0 mm 3 mps 753 mmHg 60%
11:00 +27°C° 0 mm 3 mps 753 mmHg 57%
12:00 +28°C° 0 mm 3 mps 753 mmHg 53%
13:00 +28°C° 0 mm 3 mps 753 mmHg 50%
14:00 +28°C° 0 mm 3 mps 753 mmHg 52%
15:00 +28°C° 0 mm 4 mps 752 mmHg 54%
16:00 +28°C° 0 mm 4 mps 752 mmHg 56%
17:00 +26°C° 0 mm 4 mps 752 mmHg 64%
18:00 +25°C° 0 mm 3 mps 753 mmHg 71%
19:00 +22°C° 0 mm 3 mps 753 mmHg 78%
20:00 +21°C° 0 mm 3 mps 753 mmHg 82%
21:00 +20°C° 0 mm 3 mps 753 mmHg 87%
22:00 +18°C° 0 mm 3 mps 753 mmHg 91%
23:00 +18°C° 0 mm 3 mps 753 mmHg 91%
Show more